GSAT0216 (GALILEO 20)

Last updated on Jan. 15, 2021, 6:30 a.m. UTC

1 43056U 17079B   21014.00224240 -.00000007  00000-0  00000-0 0  9992
2 43056  56.1067 276.0163 0004133 302.2650  57.7702  1.70473676 19244
UTC
Height (km)
Latitude
Longitude
Inclination
Orbital Period
UTC large
Height (km)
Speed (km/s)
/
Latitude / Longitude
Inclination (degrees)
Orbital Period (minutes)
Azimuth
Elevation
Range (km)
Doppler Factor
iOS Compass Heading
iOS Angle

Next 30 passes for location: Hong Kong

Rise time Rise Azimuth (degrees) Set time Set Azimuth (degrees) Duration Max altitude (degrees)

No matching passes for this satellites